Satellite-Ground Cal/Val Region Overpasses Predictions

Prediction of Satellite NPP Overpassing Cal/Val Region: PacNW

Region Location: (Latitude: 10.00, Longitude: 139.50) to (Latitude: 22.70, Longitude: 165.60).

Table of predicted overpasses for the next 14.0 days since TLE Epoch: 2/16/2016
Interval Starting Time Starting Location Ending Time Ending Location
1 02/16/2016 14:53:34 ( 22.70, 161.91) 02/16/2016 14:57:10 ( 10.02, 158.90)
2 02/17/2016 03:44:09 ( 10.01, 144.07) 02/17/2016 03:47:45 ( 22.70, 141.05)
3 02/17/2016 14:35:46 ( 18.32, 165.60) 02/17/2016 14:38:07 ( 10.04, 163.66)
4 02/17/2016 16:16:02 ( 22.65, 141.28) 02/17/2016 16:18:07 ( 15.31, 139.51)
5 02/18/2016 03:25:06 ( 10.05, 148.82) 02/18/2016 03:28:41 ( 22.68, 145.82)
6 02/18/2016 15:56:58 ( 22.67, 146.05) 02/18/2016 16:00:33 ( 10.05, 143.05)
7 02/19/2016 03:06:03 ( 10.03, 153.58) 02/19/2016 03:09:38 ( 22.66, 150.59)
8 02/19/2016 15:37:55 ( 22.69, 150.82) 02/19/2016 15:41:31 ( 10.01, 147.80)
9 02/20/2016 02:46:59 ( 10.01, 158.35) 02/20/2016 02:50:35 ( 22.69, 155.34)
10 02/20/2016 15:18:52 ( 22.65, 155.57) 02/20/2016 15:22:27 ( 10.03, 152.57)
11 02/21/2016 02:27:57 ( 10.05, 163.10) 02/21/2016 02:31:32 ( 22.68, 160.10)
12 02/21/2016 14:59:49 ( 22.67, 160.33) 02/21/2016 15:03:24 ( 10.05, 157.34)
13 02/22/2016 02:11:38 ( 19.73, 165.59) 02/22/2016 02:12:28 ( 22.66, 164.87)
14 02/22/2016 03:50:23 ( 10.05, 142.49) 02/22/2016 03:53:57 ( 22.61, 139.51)
15 02/22/2016 14:40:45 ( 22.69, 165.10) 02/22/2016 14:44:21 ( 10.01, 162.09)
16 02/22/2016 16:22:15 ( 22.68, 139.72) 02/22/2016 16:22:30 ( 21.80, 139.50)
17 02/23/2016 03:31:20 ( 10.03, 147.26) 02/23/2016 03:34:55 ( 22.65, 144.26)
18 02/23/2016 16:03:12 ( 22.69, 144.49) 02/23/2016 16:06:48 ( 10.01, 141.48)
19 02/24/2016 03:12:17 ( 10.01, 152.02) 02/24/2016 03:15:53 ( 22.70, 149.01)
20 02/24/2016 15:44:09 ( 22.65, 149.24) 02/24/2016 15:47:44 ( 10.03, 146.24)
21 02/25/2016 02:53:14 ( 10.06, 156.77) 02/25/2016 02:56:49 ( 22.68, 153.77)
22 02/25/2016 15:25:06 ( 22.67, 154.00) 02/25/2016 15:28:41 ( 10.04, 151.01)
23 02/26/2016 02:34:11 ( 10.04, 161.54) 02/26/2016 02:37:46 ( 22.67, 158.54)
24 02/26/2016 15:06:02 ( 22.68, 158.77) 02/26/2016 15:09:38 ( 10.00, 155.76)
25 02/27/2016 02:15:59 ( 13.08, 165.60) 02/27/2016 02:18:42 ( 22.65, 163.30)
26 02/27/2016 03:56:37 ( 10.04, 140.92) 02/27/2016 03:58:21 ( 16.15, 139.51)
27 02/27/2016 14:46:59 ( 22.69, 163.53) 02/27/2016 14:50:35 ( 10.01, 160.52)
28 02/28/2016 03:37:34 ( 10.03, 145.69) 02/28/2016 03:41:09 ( 22.65, 142.69)
29 02/28/2016 14:31:08 ( 11.38, 165.59) 02/28/2016 14:31:31 ( 10.03, 165.29)
30 02/28/2016 16:09:25 ( 22.70, 142.92) 02/28/2016 16:13:01 ( 10.02, 139.91)
31 02/29/2016 03:18:30 ( 10.01, 150.45) 02/29/2016 03:22:06 ( 22.70, 147.44)
32 02/29/2016 15:50:23 ( 22.65, 147.67) 02/29/2016 15:53:58 ( 10.03, 144.67)


NCC Satellite Cal/Val Overpasses Prediction Service
